Lid_Strength_Index
4 5 5 4 4 4 4 4 4 4 4 4 4 4 4 4 5 9 10 7 6 3 4 7 7 7 7 7 6 7 11 14 12 12 10 7 8 6 5 7 6 5 5 4 2
4 4 4 4 4 4 4 4 4 4 4 4 4 4 4 4 8 11 6 4 4 4 7 8 9 8 13 8 7 9 12 12 9 9 9 7 8 7 7 7 8 7 4 3 3
4 4 4 4 4 4 4 4 4 4 4 4 4 4 4 6 12 11 5 4 5 6 7 7 9 9 13 10 9 10 12 9 9 8 8 8 8 7 8 9 7 7 6 4 4
4 4 5 5 4 4 4 4 4 4 4 4 4 4 5 11 20 11 5 5 5 8 9 9 10 13 15 14 11 13 10 10 9 10 10 10 7 8 8 7 5 5 4 4 4
5 5 5 5 5 5 5 4 4 4 4 4 4 5 10 14 14 10 6 8 10 9 11 11 11 12 14 13 12 14 12 11 10 10 11 10 10 8 8 6 5 5 4 5 4
5 5 5 5 5 5 5 5 4 4 4 5 4 6 13 17 10 10 10 10 10 10 11 11 12 11 12 12 13 12 11 11 11 11 11 12 12 11 8 5 6 5 5 5 5
5 5 5 5 5 5 5 5 5 5 5 5 5 8 14 15 10 10 10 10 11 11 12 10 10 12 11 14 11 11 14 13 13 12 12 10 13 13 9 7 6 6 5 5 4
5 5 6 5 5 5 5 5 5 5 6 5 6 11 17 11 10 11 10 11 10 10 10 9 9 10 11 10 12 15 15 18 14 13 12 11 17 12 11 10 9 7 6 5 5
5 6 5 5 5 5 5 5 6 6 6 6 11 13 17 10 13 11 11 11 11 10 9 8 10 12 12 15 19 18 21 19 17 14 14 13 16 13 12 12 12 10 7 6 5
5 5 5 5 5 5 5 7 9 9 10 10 11 18 15 15 13 11 10 10 12 11 13 13 14 16 17 18 27 22 21 19 19 16 15 16 17 15 13 13 12 11 10 8 6
4 4 4 4 4 5 9 14 16 16 14 16 16 16 15 12 11 12 11 12 13 15 18 16 18 21 20 18 17 17 18 19 17 15 16 17 17 15 14 13 13 12 11 9 8
3 4 4 4 6 7 11 14 14 14 18 14 13 13 13 12 15 14 11 15 16 18 17 19 20 18 16 17 17 17 18 19 18 15 16 17 18 16 14 14 13 12 11 11 9
3 3 3 4 6 9 11 12 9 12 18 16 14 15 13 12 16 15 12 14 17 18 18 20 19 15 16 16 17 17 19 19 20 17 16 17 19 17 15 13 12 12 11 10 10
3 3 4 5 10 11 13 10 10 13 23 19 18 15 14 14 17 13 12 14 16 18 17 18 16 16 17 18 17 20 16 17 17 20 25 16 23 19 16 15 13 12 12 10 10
3 3 5 6 11 13 11 10 12 16 28 20 18 13 14 16 16 15 13 14 18 17 17 19 17 17 17 17 16 17 15 15 15 16 16 17 17 18 14 13 11 10 10 10 9
3 4 6 9 11 11 10 14 15 23 28 20 18 18 17 16 16 15 16 14 15 17 16 17 15 15 15 14 14 12 12 12 12 15 20 16 17 15 13 12 10 8 7 7 6
4 5 8 10 13 10 12 16 24 27 21 24 20 18 18 18 18 18 18 19 19 23 22 17 16 15 13 15 12 11 14 22 23 25 20 14 17 14 11 10 9 9 8 7 6
5 8 9 10 10 12 15 20 28 28 27 19 18 19 20 19 20 20 19 21 17 18 21 23 23 16 12 12 13 13 13 19 22 22 19 13 18 14 10 9 8 7 7 7 7
7 12 12 12 11 13 17 27 25 25 19 22 20 23 23 20 22 21 23 21 17 17 23 21 20 13 12 11 11 13 15 11 16 16 18 18 15 12 10 9 8 9 8 8 8
12 13 13 11 12 15 20 22 25 19 18 20 24 22 26 24 25 26 23 18 16 14 15 18 20 13 12 11 11 11 10 16 16 21 22 20 18 16 12 12 10 10 9 9 9
13 16 13 12 13 17 24 25 21 17 17 19 24 22 21 23 24 25 25 18 15 15 13 15 15 15 12 14 16 14 14 13 14 16 20 21 18 11 12 11 11 10 10 10 10
14 20 13 13 20 27 25 25 17 17 17 17 20 20 21 21 22 21 22 21 14 15 16 12 14 18 16 12 12 12 13 13 17 18 16 17 17 9 10 10 10 10 10 10 10
15 15 13 14 23 24 22 19 17 17 17 17 19 18 19 21 26 20 24 16 14 15 17 13 17 24 20 16 13 13 13 12 13 14 17 19 17 9 10 10 9 10 11 12 10
14 17 16 18 18 20 23 24 22 16 17 17 17 17 20 21 19 24 23 16 14 16 9 10 16 19 21 17 16 16 15 14 15 17 17 17 15 12 11 12 11 11 12 13 12
14 17 15 19 18 20 20 22 23 21 17 17 18 19 20 24 20 21 21 17 15 12 11 15 19 18 16 15 15 16 16 15 16 15 16 16 15 13 11 13 12 10 12 13 14
16 17 17 21 17 19 19 20 20 20 18 20 19 18 18 24 19 22 18 17 16 14 12 13 20 19 21 18 16 17 16 15 15 14 14 14 14 10 12 12 11 12 13 14 14
13 14 14 17 18 19 20 19 19 18 18 17 17 18 19 18 16 17 16 16 15 15 16 14 17 18 26 19 21 24 18 15 15 14 13 15 12 11 14 13 12 13 13 14 14